Temperature
13 13 13 13 13 13 13 13 13 13 13 14 14 14 14 15 15 15 15 15 15 15 15 15 15 15 15 15 15 16 16 16 16 15 15 15 15 15
13 13 13 13 13 13 13 13 13 13 13 13 14 14 14 14 14 14 15 15 15 15 15 15 15 15 15 15 15 15 15 15 15 15 15 15 15 15
13 13 13 13 13 13 13 13 13 13 13 13 13 13 14 14 14 14 14 14 14 15 15 15 15 15 15 15 15 15 15 15 15 15 15 15 15 15
13 13 13 13 13 13 13 13 13 13 13 13 13 13 13 13 14 14 14 14 14 14 14 14 14 14 14 14 14 14 14 14 14 14 14 14 15 15
13 13 13 13 13 13 13 13 13 13 13 13 13 13 13 13 13 13 13 14 14 14 14 14 14 14 14 14 14 14 14 14 14 14 14 14 14 14
13 13 13 13 13 13 13 13 13 13 13 13 13 13 13 13 13 13 13 14 14 14 14 14 14 14 14 14 14 14 14 14 14 14 14 14 14 14
13 13 13 13 13 13 13 13 13 13 13 13 13 13 13 13 13 13 13 13 13 13 13 13 13 13 13 13 13 14 14 14 13 13 13 13 13 13
13 13 13 13 13 13 13 13 13 13 13 13 13 13 13 13 13 13 13 13 13 13 13 13 13 13 13 13 13 13 13 13 13 13 13 13 13 13
13 13 13 12 12 12 12 13 13 13 12 12 12 13 12 12 12 12 12 12 12 12 12 13 13 13 13 13 13 13 13 13 13 13 13 13 13 13
13 13 13 12 12 12 12 12 12 12 12 12 12 12 12 12 12 12 12 12 12 12 12 12 12 12 12 12 12 12 12 12 12 12 12 12 12 12
13 12 12 12 12 12 12 12 12 12 12 12 12 12 12 12 12 12 12 12 12 12 12 12 12 12 12 12 12 12 12 12 12 12 12 12 12 12
13 12 12 12 12 12 12 12 12 12 12 12 12 12 12 12 12 12 12 12 12 11 11 11 11 11 11 11 11 11 11 11 11 11 11 11 12 12
13 12 12 12 12 12 12 12 12 12 11 11 11 11 11 11 11 11 11 11 11 11 11 11 11 11 11 11 11 11 11 11 11 11 11 11 11 11
13 12 12 12 12 12 11 11 11 11 11 11 11 11 11 11 11 11 11 11 11 11 11 10 10 10 10 10 10 10 10 10 10 10 10 10 10 10
12 12 12 12 12 11 11 11 11 11 11 11 11 11 11 11 10 10 10 10 10 10 10 10 10 10 10 10 10 10 10 10 10 10 10 10 10 10
12 12 12 11 11 11 11 11 11 11 11 11 11 10 10 10 10 10 10 10 10 10 10 9 9 9 9 9 9 9 9 9 9 9 9 9 9 9
12 12 11 11 11 11 11 11 10 10 10 10 10 10 10 10 10 10 9 9 9 9 9 9 9 9 9 9 9 8 8 8 8 8 8 9 9 9
12 11 11 11 11 11 11 10 10 10 10 10 10 10 9 9 9 9 9 9 9 9 8 8 8 8 8 8 8 8 8 8 8 8 8 8 8 8
11 11 11 11 11 11 10 10 10 10 10 9 9 9 9 9 9 8 8 8 8 8 8 8 8 7 7 7 7 7 7 7 7 7 7 7 7 7
11 11 11 11 10 10 10 10 10 9 9 9 9 9 9 8 8 8 8 7 7 7 7 7 7 7 6 6 6 6 6 6 6 6 6 6 7 7
11 11 11 10 10 10 10 9 9 9 9 9 8 8 8 8 7 7 7 7 7 6 6 6 6 6 5 5 5 5 5 5 5 5 5 5 6 6
10 10 10 10 10 10 9 9 9 9 8 8 8 8 7 7 7 7 6 6 6 6 6 5 5 5 5 5 4 4 5 4 4 4 4 4 4 4
10 10 10 9 9 9 9 9 8 8 8 8 7 7 7 7 6 6 6 6 5 5 5 5 4 4 4 4 4 4 4 4 4 4 4 3 3 3
Wind_Speed
1 2 1 1 1 2 2 3 3 2 1 1 1 1 1 1 1 1 1 3 4 4 4 5 6 8 8 7 7 7 6 7 7 8 9 9 9 9
1 1 1 0 1 1 2 2 2 3 1 1 1 1 1 1 2 1 1 2 3 4 4 4 5 6 6 6 7 6 6 7 7 7 8 9 9 9
0 1 1 1 1 1 1 2 2 2 2 1 0 0 0 1 2 2 2 1 1 2 4 4 5 5 5 6 6 5 5 6 7 7 8 8 8 8
1 1 1 1 1 1 1 2 2 2 3 2 0 0 0 0 1 1 1 1 1 1 3 4 4 4 5 6 6 5 5 6 6 7 7 8 8 8
1 1 1 2 1 1 1 2 1 2 2 3 1 0 0 0 1 1 1 1 1 1 1 2 3 3 4 5 6 6 6 6 6 6 7 7 7 7
1 1 1 2 2 2 2 2 2 2 3 3 1 0 0 0 1 1 1 1 1 1 2 1 1 2 3 4 5 5 6 6 6 6 7 7 7 7
1 1 1 1 2 2 2 3 3 3 2 2 1 0 0 1 1 0 0 1 1 1 1 1 1 0 1 2 3 5 5 6 6 6 7 7 7 8
1 1 1 1 1 1 2 3 5 4 4 3 2 2 1 1 1 1 1 1 1 1 0 1 0 1 1 1 2 4 4 5 5 6 6 6 7 7
1 0 1 1 1 1 1 1 1 3 4 4 4 3 3 3 3 2 2 1 1 1 0 1 1 1 1 1 0 2 3 3 4 5 5 6 6 6
1 1 1 1 0 2 2 2 1 0 1 2 3 3 3 3 3 3 2 1 0 1 1 1 1 1 1 1 2 1 1 1 1 2 3 3 4 5
1 1 1 1 2 2 3 2 0 2 1 2 3 2 1 2 3 3 2 2 0 1 0 1 0 1 1 1 2 3 3 2 2 1 1 2 3 3
1 1 1 2 1 3 3 3 2 2 0 1 1 2 2 2 2 2 3 2 1 1 0 1 0 0 1 1 2 3 3 3 3 3 3 3 3 1
2 1 1 1 1 2 3 3 3 2 1 2 2 2 2 2 2 1 1 2 2 2 1 1 1 0 1 1 1 2 3 3 3 3 4 4 3 1
3 2 2 2 3 3 2 2 3 3 3 3 2 1 1 1 1 2 3 3 3 2 1 1 1 1 1 1 1 2 2 3 3 3 4 5 4 3
4 5 4 3 3 2 2 3 3 3 3 2 1 1 0 0 1 2 3 4 5 6 5 3 1 1 1 1 1 1 2 2 3 3 3 3 3 3
3 3 4 4 3 3 3 2 2 2 3 2 1 1 1 2 2 1 2 2 2 3 5 6 3 2 1 0 1 1 1 2 3 4 3 3 3 3
5 3 2 2 2 2 2 2 2 2 2 1 2 2 2 2 2 1 2 2 2 1 2 3 5 4 2 1 1 1 1 2 3 3 3 3 3 3
7 4 4 4 4 4 3 2 1 1 1 2 2 2 2 2 2 2 2 3 2 1 1 2 2 2 2 3 3 1 1 2 3 3 2 3 4 4
6 5 5 5 5 4 4 3 3 2 2 2 2 2 2 2 2 2 2 2 2 1 1 1 2 1 1 1 2 3 1 3 3 3 3 3 4 6
5 6 6 6 5 5 5 4 3 3 2 3 2 2 2 2 3 2 2 2 2 1 1 1 1 0 1 1 1 2 4 3 2 3 4 4 4 6
6 6 6 6 6 6 5 5 5 4 4 3 3 3 3 3 3 2 2 3 2 1 1 1 2 2 1 1 1 2 3 4 4 3 4 4 5 4
7 7 6 6 6 6 6 6 5 5 5 4 4 4 3 3 3 3 3 2 2 1 1 1 2 1 0 0 2 3 4 4 5 5 5 5 3 3
7 7 6 6 6 6 6 7 7 6 5 5 4 4 4 3 3 3 3 2 2 1 1 1 1 1 1 1 2 3 4 5 4 4 5 7 8 10
Wind_Direction
207 198 198 218 180 181 168 162 156 164 258 287 314 334 356 21 11 129 175 194 185 191 196 196 196 198 204 211 218 221 226 227 227 221 220 222 225 229
183 168 187 206 153 168 172 172 169 166 193 256 259 308 335 25 54 74 125 152 163 175 177 180 187 187 197 207 212 217 223 229 229 223 220 220 224 230
161 175 204 175 154 163 156 157 168 162 178 266 307 330 23 38 26 40 59 117 151 181 186 183 184 185 193 203 209 209 215 225 230 230 227 227 227 234
265 189 219 173 165 168 156 167 172 173 167 177 305 359 15 170 78 55 39 76 104 182 194 194 190 195 201 204 208 213 219 225 229 232 229 230 233 237
271 223 227 164 176 189 174 170 172 157 151 157 188 53 358 43 77 63 53 32 46 54 166 178 190 205 207 206 209 213 220 226 231 231 229 231 235 238
316 271 223 188 200 194 182 179 156 135 135 143 160 178 148 352 96 87 39 20 12 28 55 94 182 210 214 212 215 216 218 224 227 228 229 231 238 242
346 329 286 208 202 193 182 177 157 146 141 145 158 149 181 142 157 146 113 2 355 20 22 4 9 355 267 233 224 221 217 218 220 226 230 233 236 241
322 325 321 334 286 217 181 168 166 164 169 168 178 182 217 204 192 174 153 85 327 344 49 310 38 269 292 257 228 218 217 220 227 234 235 235 239 242
224 300 338 351 23 91 81 98 147 185 183 173 177 200 204 202 177 176 181 184 218 268 84 308 324 270 303 317 218 205 212 223 232 239 244 245 244 246
210 216 221 295 283 134 123 95 62 338 209 178 181 204 206 196 186 185 181 162 67 3 121 201 319 303 334 18 42 86 125 189 222 232 242 250 255 255
250 231 211 235 259 151 132 134 39 323 330 159 171 176 178 164 153 131 132 130 5 331 34 164 286 326 343 360 34 50 52 44 24 354 314 290 279 269
253 279 238 212 231 169 156 157 188 264 244 96 70 41 54 80 120 149 166 161 166 243 297 147 225 44 347 353 16 27 31 25 15 2 349 337 324 300
200 233 252 210 175 163 160 172 202 194 149 126 100 75 66 60 54 75 132 165 173 209 218 151 148 123 174 305 339 12 32 19 9 358 354 352 348 321
195 206 209 163 145 138 150 175 162 136 114 106 98 85 76 55 42 64 90 92 99 114 73 116 150 170 177 253 294 339 4 16 13 1 359 354 348 334
187 179 169 155 136 118 100 120 123 119 123 122 133 168 194 147 91 81 68 80 71 61 51 49 96 155 172 202 245 310 330 351 7 1 354 353 343 343
175 159 146 131 117 106 89 83 101 127 138 147 148 129 91 87 78 85 92 83 79 36 25 32 42 97 134 160 189 312 341 336 351 349 342 338 346 350
155 131 128 130 134 120 97 86 90 105 118 130 133 121 104 97 80 73 92 92 103 89 15 13 27 50 64 99 88 38 17 3 345 342 342 336 330 334
151 162 178 178 180 181 171 159 142 144 153 148 140 140 139 133 116 90 93 108 111 96 51 6 14 37 43 44 44 56 14 343 333 333 330 320 315 322
167 182 188 191 190 185 181 176 181 184 167 152 149 152 147 138 127 118 113 107 106 95 51 23 33 70 55 310 342 22 3 330 330 329 319 305 299 310
187 191 195 193 190 189 187 184 177 162 153 154 152 151 147 142 137 139 141 141 139 120 72 29 28 37 207 237 273 317 335 321 318 316 314 305 294 295
198 198 195 191 190 188 185 180 175 173 166 161 162 159 156 148 149 151 150 143 136 145 166 281 282 295 246 98 318 307 309 313 303 294 307 314 315 316
195 196 195 191 186 183 178 173 171 171 168 165 167 165 162 159 161 161 161 161 171 182 212 283 326 358 68 222 280 295 303 312 320 318 310 294 289 300
196 192 190 187 184 178 176 175 174 178 178 174 171 169 163 162 163 163 165 161 159 168 189 315 344 360 316 272 282 297 306 313 317 321 315 313 300 291
Height
1492 1493 1493 1493 1494 1494 1495 1496 1498 1498 1499 1500 1501 1502 1503 1504 1506 1507 1509 1511 1513 1514 1516 1518 1520 1521 1523 1525 1526 1528 1530 1531 1532 1533 1535 1536 1537 1538
1492 1492 1492 1492 1493 1493 1494 1495 1496 1498 1498 1499 1500 1501 1502 1503 1504 1506 1507 1509 1510 1512 1514 1515 1517 1519 1520 1521 1523 1525 1526 1527 1529 1530 1531 1532 1533 1534
1491 1491 1491 1492 1492 1493 1493 1494 1495 1496 1497 1498 1499 1500 1501 1502 1503 1504 1505 1507 1508 1510 1511 1513 1514 1515 1517 1518 1520 1521 1523 1524 1525 1526 1527 1528 1529 1530
1491 1491 1491 1491 1492 1492 1493 1493 1494 1495 1496 1496 1497 1498 1499 1500 1501 1502 1503 1505 1506 1507 1508 1510 1511 1513 1514 1515 1517 1518 1519 1520 1521 1522 1523 1524 1525 1526
1491 1491 1491 1491 1491 1491 1492 1493 1493 1494 1495 1495 1496 1497 1498 1499 1500 1501 1502 1503 1504 1505 1506 1507 1508 1509 1511 1512 1513 1514 1515 1516 1517 1518 1519 1520 1521 1522
1490 1490 1490 1490 1490 1491 1491 1492 1492 1493 1494 1494 1495 1496 1497 1497 1498 1499 1500 1501 1502 1503 1504 1504 1505 1506 1507 1508 1510 1510 1511 1512 1513 1514 1515 1516 1516 1517
1490 1490 1490 1490 1490 1490 1491 1491 1492 1492 1493 1493 1494 1495 1495 1496 1497 1498 1499 1499 1500 1501 1501 1502 1503 1504 1504 1505 1506 1507 1508 1509 1509 1510 1511 1512 1512 1513
1489 1489 1489 1489 1489 1489 1490 1490 1491 1491 1492 1492 1493 1494 1494 1495 1496 1497 1497 1498 1498 1500 1500 1500 1501 1501 1502 1502 1503 1504 1504 1505 1506 1507 1508 1508 1508 1509
1489 1488 1488 1488 1488 1488 1489 1489 1490 1490 1491 1492 1492 1493 1493 1494 1495 1495 1496 1496 1497 1498 1498 1498 1499 1499 1499 1499 1500 1500 1501 1502 1503 1503 1504 1504 1504 1505
1487 1487 1487 1487 1487 1487 1488 1488 1489 1489 1489 1490 1491 1492 1492 1493 1493 1494 1494 1495 1495 1496 1497 1497 1497 1497 1497 1497 1497 1498 1498 1499 1499 1499 1500 1500 1500 1500
1486 1486 1486 1486 1486 1486 1487 1487 1487 1488 1488 1489 1489 1490 1491 1491 1492 1492 1492 1493 1493 1494 1495 1495 1495 1495 1495 1495 1495 1495 1496 1496 1496 1496 1496 1496 1495 1495
1484 1484 1484 1484 1485 1485 1485 1485 1485 1486 1486 1487 1488 1488 1489 1489 1490 1490 1491 1491 1491 1492 1492 1493 1493 1493 1493 1493 1493 1493 1493 1493 1492 1492 1492 1491 1491 1491
1482 1482 1482 1483 1483 1483 1483 1483 1483 1484 1484 1485 1485 1486 1486 1487 1487 1488 1488 1489 1489 1489 1490 1490 1490 1490 1490 1490 1490 1490 1490 1490 1489 1489 1488 1488 1487 1487
1479 1479 1480 1480 1481 1481 1481 1481 1481 1481 1482 1482 1483 1483 1484 1484 1485 1485 1486 1486 1486 1487 1487 1487 1487 1487 1487 1487 1487 1487 1487 1486 1486 1485 1484 1484 1483 1483
1476 1477 1477 1478 1478 1478 1478 1478 1478 1479 1479 1480 1480 1481 1481 1482 1482 1483 1483 1483 1484 1484 1484 1484 1484 1484 1484 1484 1483 1483 1483 1483 1482 1481 1481 1480 1479 1478
1473 1474 1474 1475 1475 1475 1476 1476 1476 1476 1476 1477 1478 1478 1479 1479 1480 1480 1480 1481 1481 1481 1482 1482 1481 1481 1481 1481 1480 1480 1479 1479 1478 1477 1477 1476 1475 1474
1469 1470 1471 1471 1472 1472 1473 1473 1473 1474 1474 1475 1475 1476 1476 1476 1477 1477 1477 1478 1478 1478 1478 1478 1478 1478 1478 1478 1477 1476 1476 1475 1475 1474 1473 1472 1471 1470
1464 1465 1466 1467 1467 1468 1469 1470 1470 1471 1471 1472 1472 1473 1473 1473 1474 1474 1474 1475 1475 1475 1475 1475 1475 1474 1475 1474 1474 1473 1472 1472 1471 1470 1469 1468 1466 1466
1459 1460 1461 1462 1463 1464 1465 1466 1467 1468 1468 1469 1469 1469 1470 1470 1470 1471 1471 1471 1471 1472 1472 1472 1471 1471 1471 1470 1470 1470 1469 1468 1467 1466 1465 1463 1461 1460
1453 1454 1455 1457 1458 1460 1461 1462 1463 1464 1465 1465 1466 1466 1466 1467 1467 1467 1468 1468 1468 1468 1469 1469 1468 1468 1468 1467 1466 1466 1465 1464 1463 1461 1460 1458 1457 1456
1447 1448 1450 1452 1453 1455 1457 1458 1459 1460 1461 1461 1462 1462 1463 1463 1464 1464 1464 1465 1465 1465 1465 1465 1465 1465 1464 1464 1463 1462 1462 1461 1459 1458 1455 1453 1451 1449
1440 1442 1444 1446 1448 1450 1451 1453 1454 1455 1456 1457 1458 1459 1459 1460 1460 1460 1461 1461 1461 1461 1461 1462 1462 1461 1461 1460 1459 1458 1457 1457 1455 1454 1453 1451 1448 1445
1434 1436 1438 1440 1442 1444 1445 1447 1449 1450 1451 1453 1454 1455 1455 1456 1457 1457 1457 1457 1458 1458 1458 1458 1458 1458 1457 1457 1456 1455 1453 1452 1451 1449 1449 1447 1446 1443